MST,Max TemperatureF,Mean TemperatureF,Min TemperatureF,Max Dew PointF,MeanDew PointF,Min DewpointF,Max Humidity, Mean Humidity, Min Humidity, Max Sea Level PressureIn, Mean Sea Level PressureIn, Min Sea Level PressureIn, Max VisibilityMiles, Mean VisibilityMiles, Min VisibilityMiles, Max Wind SpeedMPH, Mean Wind SpeedMPH, Max Gust SpeedMPH,PrecipitationIn, CloudCover, Events, WindDirDegrees
2013-11-1,65,46,28,36,33,28,98,70,28,30.34,30.28,30.23,10,10,10,7,3,,0.00,0,,144
2013-11-2,70,51,32,35,30,22,96,61,17,30.28,30.12,29.96,10,10,7,12,4,17,0.00,0,,135
2013-11-3,64,46,28,36,28,21,96,61,22,29.96,29.91,29.87,10,10,10,16,5,22,0.00,0,,225
2013-11-4,49,40,28,39,32,24,97,75,39,30.04,29.94,29.89,10,10,5,13,4,18,0.04,3,Rain,337
2013-11-5,51,36,20,29,21,11,98,66,20,30.34,30.21,30.04,10,10,10,14,3,18,0.00,0,,132
2013-11-6,60,40,20,29,21,12,94,61,17,30.45,30.41,30.34,10,10,5,7,2,,0.00,0,,137
2013-11-7,67,48,30,26,21,15,76,41,13,30.44,30.34,30.23,10,10,10,15,7,22,0.00,0,,113
2013-11-8,68,47,26,28,21,13,89,50,12,30.24,30.18,30.11,10,10,10,9,4,,0.00,0,,164
2013-11-9,69,48,27,26,22,16,82,50,13,30.28,30.22,30.18,10,10,10,9,4,,0.00,0,,145
2013-11-10,71,49,27,27,24,19,85,51,15,30.33,30.29,30.24,10,10,5,8,3,,0.00,0,,139
2013-11-11,75,52,28,29,23,16,86,46,11,30.40,30.34,30.29,10,10,10,14,4,16,0.00,0,,119
2013-11-12,73,52,32,27,23,19,73,35,13,30.49,30.42,30.37,10,10,10,18,4,25,0.00,0,,75
2013-11-13,71,52,34,31,24,20,73,33,17,30.39,30.27,30.18,10,10,7,13,6,17,0.00,2,,110
2013-11-14,66,46,26,29,23,15,86,51,14,30.21,30.10,29.89,10,10,4,9,3,,0.00,0,,150
2013-11-15,63,45,27,29,24,22,80,52,23,29.88,29.75,29.67,10,10,10,21,4,29,0.00,0,,231
2013-11-16,59,42,24,34,28,21,88,61,28,29.93,29.78,29.72,10,10,10,23,6,38,0.00,2,,224
2013-11-17,59,46,33,37,35,29,91,67,39,30.19,30.09,29.94,10,10,10,8,2,,0.00,3,,218
2013-11-18,63,49,35,37,29,25,79,48,26,30.26,30.17,30.12,10,10,10,12,5,18,0.00,0,,125
2013-11-19,59,44,30,42,34,28,96,71,47,30.14,30.03,29.97,10,10,10,13,4,16,0.00,1,,216
2013-11-20,51,40,28,45,38,28,100,87,66,30.00,29.94,29.89,10,10,1,7,2,,0.03,6,Rain,130
2013-11-21,53,47,41,46,44,41,100,91,68,30.07,29.97,29.92,10,9,2,12,5,17,0.39,8,Rain-Thunderstorm,102
2013-11-22,45,43,41,43,38,35,98,80,71,30.10,30.04,29.95,10,9,2,36,15,52,0.36,8,Rain,67
2013-11-23,45,42,38,38,37,36,97,82,70,30.15,30.09,30.03,10,9,2,34,19,47,0.26,7,Rain,64
2013-11-24,49,40,30,40,36,30,100,88,58,30.22,30.16,30.13,10,9,1,13,3,16,0.01,5,Rain,312
2013-11-25,54,39,24,35,30,23,99,81,37,30.37,30.27,30.21,10,10,2,10,2,,0.00,0,,174
2013-11-26,59,42,25,35,28,24,97,64,28,30.43,30.36,30.31,10,10,10,16,4,23,0.00,0,,90
2013-11-27,55,46,36,33,31,28,72,57,43,30.33,30.22,30.13,10,10,7,17,7,22,0.00,0,,69
2013-11-28,55,44,33,34,31,27,92,62,35,30.25,30.17,30.13,10,10,10,15,8,21,0.00,0,,78
2013-11-29,56,42,28,35,32,27,99,79,37,30.34,30.29,30.24,10,10,10,9,4,,0.00,0,,156
2013-11-30,53,38,23,36,30,22,99,84,51,30.36,30.32,30.26,10,10,7,12,2,,0.00,0,,148